Home   Weather   Spa   Past weeks

Flag for Belgium Past Weather in Spa, Belgium — Yesterday and Last 2 Weeks

39 °F

Passing clouds.

Feels Like: 39 °F
Forecast: 36 / 56 °F
Wind: 2 mph from South

Location: Spa / La Sauveniere

Current Time: Oct 26, 2016 at 6:12:43 AM

Latest Report: Oct 26, 2016 at 5:00 AM

Visibility: N/A

Pressure: 30.37 "Hg

Humidity: 98%

Dew Point: 38 °F

Location of SpaLocation

Past Weather in Spa — Graph


Spa Temperature Yesterday

Maximum temperature yesterday: 51 °F (at 12:00 AM)
Minimum temperature yesterday: 44 °F (at 10:00 PM)
Average temperature yesterday: 47 °F

High & Low Weather Summary for the Past Weeks

High62 °F (Oct 16, 4:00 PM)100% (Oct 12, 7:00 AM)30.37 "Hg (Oct 12, 7:00 AM)
Low36 °F (Oct 11, 8:00 AM)56% (Oct 11, 4:00 PM)29.66 "Hg (Oct 14, 5:00 PM)
Average46 °F90%30.02 "Hg
* Reported Oct 11 5:00 AM — Oct 26 5:00 AM, Spa, Weather by CustomWeather, © 2016

Note: Actual official high and low records may vary slightly from our data, if they occured in-between our weather recording intervals... More about our weather records


Spa Weather History for the Previous 24 Hours

Scroll right to see more
Time TempWeatherWind HumidityBarometerVisibility
5:00 AM
Wed, Oct 26
39 °FPassing clouds.2 mph98%30.37 "HgN/A
4:00 AM40 °FPassing clouds.No wind100%30.37 "Hg0 mi
3:00 AM39 °FPassing clouds.No wind100%30.37 "Hg0 mi
2:00 AM40 °FFog.2 mph97%30.35 "Hg2 mi
1:00 AM42 °FFog.1 mph97%30.35 "Hg1 mi
12:00 AM44 °FFog.No wind98%30.34 "Hg1 mi
11:00 PM
Tue, Oct 25
45 °FPassing clouds.No wind97%30.33 "Hg1 mi
10:00 PM44 °FPassing clouds.No wind97%30.32 "Hg0 mi
9:00 PM45 °FLow clouds.No wind99%30.31 "HgN/A
8:00 PM45 °FFog.1 mph97%30.30 "Hg1 mi
7:00 PM45 °FPassing clouds.1 mph97%30.29 "Hg1 mi
6:00 PM45 °FPartly sunny.2 mph97%30.29 "HgN/A
5:00 PM46 °FFog.2 mph97%30.27 "Hg2 mi
4:00 PM47 °FFog.1 mph94%30.24 "Hg3 mi
3:00 PM47 °FLow clouds.1 mph92%30.23 "HgN/A
2:00 PM46 °FLow clouds.1 mph95%30.24 "Hg3 mi
1:00 PM46 °FPartly sunny.2 mph98%30.23 "Hg0 mi
12:00 PM46 °FFog.2 mph97%30.22 "Hg1 mi
11:00 AM46 °FPartly sunny.2 mph95%30.21 "Hg3 mi
10:00 AM45 °FPartly sunny.1 mph99%30.19 "HgN/A
9:00 AM46 °FDrizzle. Partly sunny.2 mph99%30.17 "Hg0 mi
8:00 AM47 °FLight rain. Low clouds.3 mph100%30.15 "Hg0 mi
7:00 AM47 °FDrizzle. Low clouds.3 mph97%30.13 "Hg2 mi
6:00 AM47 °FLow clouds.2 mph96%30.10 "HgN/A
Weather by CustomWeather, © 2016

See weather overviewHow to use our weather pages